This demonstration page uses our WeatherBlox Daily Observations layout. Learn more.

Left ArrowRight Arrow

44.8408, -93.29828

Hourly Observations for August 11, 2021

Temp ( °F °C ) Dew Point ( °F °C ) Humidity (%) Winds ( mph kmh ) Pressure ( in mb ) Visibility ( mi km ) Precip ( " mm )
12:53 am 00:53 Clear 73 22.8 63 17.2 71 71 SSW 5 7 29.72 1007 10 16 0.00 0.00
1:53 am 01:53 Clear 73 22.8 62 16.7 69 69 SSW 6 9 29.70 1006 10 16 0.00 0.00
2:53 am 02:53 Clear 72 22.2 62 16.7 71 71 S 7 11 29.65 1004 10 16 0.00 0.00
3:53 am 03:53 Clear 72 22.2 61 16.1 68 68 S 5 7 29.66 1004 10 16 0.00 0.00
4:53 am 04:53 Clear 72 22.2 62 16.7 71 71 S 8 13 29.63 1003 10 16 0.00 0.00
5:53 am 05:53 Mostly Cloudy 72 22.2 62 16.7 71 71 SW 5 7 29.64 1004 10 16 0.00 0.00
6:53 am 06:53 Cloudy with Nearby Thunderstorms 72 22.2 65 18.3 79 79 SSW 5 7 29.63 1003 8 13 0.00 0.00
7:18 am 07:18 Mostly Cloudy 71 21.7 65 18.3 81 81 Calm 29.62 1003 10 16 0.00 0.00
7:53 am 07:53 Cloudy 72 22.2 66 18.9 82 82 W 7 11 29.63 1004 10 16 0.00 0.00
8:53 am 08:53 Mostly Cloudy 74 23.3 68 20 82 82 W 14 22 29.63 1004 9 14 0.00 0.00
9:53 am 09:53 Partly Cloudy 77 25 67 19.4 71 71 W 12 19 29.65 1004 10 16 0.00 0.00
10:53 am 10:53 Mostly Sunny 80 26.7 65 18.3 60 60 W 15 24 29.67 1005 10 16 0.00 0.00
11:53 am 11:53 Sunny 82 27.8 62 16.7 51 51 WNW 12 19 29.68 1005 10 16 0.00 0.00
12:53 pm 12:53 Mostly Sunny 83 28.3 59 15 44 44 WNW 14 22 29.69 1006 10 16 0.00 0.00
1:53 pm 13:53 Mostly Sunny 83 28.3 57 13.9 41 41 NW 16 26 29.70 1006 10 16 0.00 0.00
2:53 pm 14:53 Mostly Sunny 84 28.9 51 10.6 32 32 WNW 13 20 29.70 1006 10 16 0.00 0.00
3:53 pm 15:53 Mostly Sunny 84 28.9 49 9.4 30 30 WNW 15 24 29.70 1006 10 16 0.00 0.00
4:53 pm 16:53 Sunny 83 28.3 50 10 32 32 W 16 26 29.70 1006 10 16 0.00 0.00
5:53 pm 17:53 Sunny 82 27.8 49 9.4 32 32 WSW 15 24 29.71 1006 10 16 0.00 0.00
6:53 pm 18:53 Sunny 81 27.2 49 9.4 33 33 W 16 26 29.71 1006 10 16 0.00 0.00
7:53 pm 19:53 Sunny 79 26.1 51 10.6 38 38 W 14 22 29.74 1007 10 16 0.00 0.00
8:53 pm 20:53 Clear 77 25 50 10 39 39 WSW 6 9 29.76 1008 10 16 0.00 0.00
9:53 pm 21:53 Clear 75 23.9 52 11.1 45 45 WSW 8 13 29.77 1008 10 16 0.00 0.00
10:53 pm 22:53 Clear 73 22.8 53 11.7 50 50 SSW 6 9 29.76 1008 10 16 0.00 0.00
11:53 pm 23:53 Clear 71 21.7 54 12.2 55 55 SSW 10 17 29.76 1008 10 16 0.00 0.00

Powered by AerisWeather